#timestamp,LO_Frequency,Hit,StdDev 
1576540815.2,286046999.6,N
1576540835.9,286047000.7,N
1576540855.7,286047002.0,N
1576540875.6,286047001.3,N
1576540895.4,286047002.6,N
1576540915.3,286047002.6,N
1576540935.1,286047002.4,N
1576540936.0,286047002.4,N
1576540955.8,286047001.1,N
1576540975.7,286046999.7,N
1576540995.5,286046999.7,N
1576541015.3,286046999.8,N
1576541035.2,286047002.1,N
1576541055.0,286047002.5,N
1576541055.9,286047002.5,N
1576541075.8,286047001.7,N
1576541095.6,286047004.4,N
1576541115.4,286047001.3,N
1576541135.3,286047003.6,N
1576541155.1,286047004.3,N
1576541175.8,286047004.4,N
1576541195.7,286047001.9,N
1576541215.5,286046999.7,N
1576541235.4,286047000.4,N
1576541255.2,286046999.7,N
1576541275.0,286046998.5,N
1576541275.9,286046998.5,N
1576541295.8,286046999.1,N
1576541315.6,286046998.8,N
1576541335.4,286046998.7,N
1576541355.3,286046998.7,N
1576541375.1,286046998.6,N
1576541395.9,286046998.5,N
1576541415.7,286046996.6,N
1576541435.5,286046996.6,N
1576541455.4,286046996.7,N
1576541475.2,286046995.0,N
1576541495.1,286046999.3,N
1576541496.0,286046999.3,N
1576541515.8,286046999.3,N
1576541535.6,286046998.9,N
1576541555.5,286046998.3,N
1576541575.3,286046998.2,N
1576541595.1,286047000.9,N
1576541615.9,286046998.9,N
1576541635.7,286047000.8,N
1576541655.6,286047000.5,N
1576541675.4,286047001.7,N
1576541695.2,286047001.6,N
1576541715.1,286047000.9,N
1576541716.0,286047000.9,N
1576541735.8,286046998.2,N
1576541755.7,286046999.9,N
1576541775.5,286046998.2,N
1576541795.3,286046998.3,N
1576541815.2,286046999.3,N
1576541835.9,286047000.4,N
1576541855.7,286047000.8,N
1576541875.6,286047002.8,N
1576541895.4,286047001.2,N
1576541915.3,286046998.2,N
1576541935.1,286046998.5,N
1576541936.0,286046998.5,N
1576541955.8,286047000.8,N
1576541975.7,286047000.3,N
1576541995.5,286046999.1,N
1576542015.3,286047000.3,N
1576542035.2,286047000.0,N
1576542055.0,286046998.8,N
1576542055.9,286046998.8,N
1576542075.8,286046998.9,N
1576542095.6,286046999.0,N
1576542115.4,286047000.8,N
1576542135.3,286047002.5,N
1576542155.1,286047001.2,N
1576542175.9,286047000.0,N
1576542195.7,286047002.0,N
1576542215.5,286046999.8,N
1576542235.4,286047000.7,N
1576542255.2,286047001.1,N
1576542275.0,286047000.4,N
1576542275.9,286047000.4,N
1576542295.8,286046998.1,N
1576542315.6,286047000.6,N
1576542335.5,286047002.6,N
1576542355.3,286047000.1,N
1576542375.1,286047002.8,N
1576542395.9,286047000.0,N
1576542415.7,286046998.2,N
1576542435.5,286046996.5,N
1576542455.4,286046998.2,N
1576542475.2,286046999.5,N
1576542495.1,286046998.4,N
1576542496.0,286046998.4,N
1576542515.8,286046999.4,N
1576542535.6,286046998.8,N
1576542555.5,286046998.1,N
1576542575.3,286047000.1,N
1576542595.2,286047000.5,N
1576542615.9,286047001.0,N
1576542635.7,286047000.8,N
1576542655.6,286046998.6,N
1576542675.4,286046998.4,N
1576542695.2,286047000.0,N
1576542715.1,286046998.8,N
1576542716.0,286046998.8,N
1576542735.8,286047002.8,N
1576542755.7,286046998.7,N
1576542775.5,286047000.5,N
1576542795.3,286047002.7,N
1576542815.2,286047000.1,N
1576542835.0,286047000.4,N
1576542835.9,286047000.4,N
1576542855.8,286047000.9,N
1576542875.6,286046999.4,N
1576542895.4,286047000.5,N
1576542915.3,286046998.9,N
1576542935.1,286047001.1,N
1576542955.8,286047000.4,N
1576542975.7,286047002.1,N
1576542995.5,286047002.3,N
1576543015.4,286047001.1,N
1576543035.2,286046998.6,N
1576543055.0,286046996.6,N
1576543055.9,286046996.6,N
1576543075.8,286047001.0,N
1576543095.6,286046998.9,N
1576543115.5,286046999.9,N
1576543135.3,286047001.9,N
1576543155.1,286047002.8,N
1576543175.9,286046998.2,N
1576543195.7,286046998.9,N
1576543215.5,286046999.0,N
1576543235.4,286046998.1,N
1576543255.2,286046998.5,N
1576543275.1,286047002.5,N
1576543276.0,286047002.5,N
1576543295.8,286047000.0,N
1576543315.6,286046999.8,N
1576543335.5,286047000.8,N
1576543355.3,286047000.3,N
1576543375.1,286047002.3,N
1576543395.9,286047002.3,N
1576543415.7,286047002.5,N
1576543435.6,286047002.6,N
1576543455.4,286047000.1,N
1576543475.2,286047000.3,N
1576543495.1,286046999.9,N
1576543496.0,286046999.9,N
1576543515.8,286047000.6,N
1576543535.7,286047000.1,N
1576543555.5,286046999.9,N
1576543575.3,286047002.4,N
1576543595.2,286047002.7,N
1576543615.9,286047001.8,N
1576543635.7,286047000.2,N
1576543655.6,286047000.9,N
1576543675.4,286046998.7,N
1576543695.3,286046998.6,N
1576543715.1,286046998.6,N
1576543716.0,286046998.6,N
1576543735.8,286046998.1,N
1576543755.7,286047000.0,N
1576543775.5,286047000.2,N
1576543795.3,286047003.1,N
1576543815.2,286047003.6,N
1576543835.0,286047005.6,Y
1576543835.9,286047005.6,P
1576543855.8,286047004.0,N
1576543875.6,286047003.9,N
1576543895.4,286046999.9,N
1576543915.3,286046998.5,N
1576543935.1,286046999.7,N
1576543955.9,286047000.8,N
1576543975.7,286047001.1,N
1576543995.5,286047000.0,N
1576544015.4,286046998.6,N
1576544035.2,286046996.5,N
1576544055.0,286046998.1,N
1576544055.9,286046998.1,N
1576544075.8,286047001.1,N
1576544095.6,286046998.3,N
1576544115.5,286047000.8,N
1576544135.3,286047002.3,N
1576544155.1,286047000.9,N
1576544175.9,286046999.1,N
1576544195.7,286046998.8,N
1576544215.6,286046999.0,N
1576544235.4,286046999.1,N
1576544255.2,286046996.6,N
1576544275.1,286046998.8,N
1576544276.0,286046998.8,N
1576544295.8,286047000.1,N
1576544315.6,286047000.0,N
1576544335.5,286046998.2,N
1576544355.3,286046999.0,N
1576544375.2,286046999.0,N
1576544395.9,286046997.0,N
